YC0ACE-13 Weather Reports


Display with metric or nautical units.
time (UTC)temp
F
wind
direction
speed
MPH
gust
MPH
rain 1hr
in
rain 24hr
in
rain mn
in
humidity
%
barometer
mb
20260506230024 81 183 1.0 1.0 0.00 0.00 0.00 87 1014.2
20260506225524 81 202 1.0 1.0 0.00 0.00 0.00 87 1014.6
20260506225027 81 198 0.0 0.0 0.00 0.00 0.00 87 1014.6
20260506224525 81 196 1.0 2.0 0.00 0.00 0.00 87 1014.2
20260506224024 81 189 1.0 1.0 0.00 0.00 0.00 87 1014.2
20260506223524 81 161 1.0 1.0 0.00 0.00 0.00 87 1013.9
20260506223024 81 124 2.0 2.0 0.00 0.00 0.00 87 1013.9
20260506222524 81 182 0.0 1.0 0.00 0.00 0.00 88 1014.2
20260506222024 81 175 0.0 0.0 0.00 0.00 0.00 88 1013.9
20260506221524 81 200 0.0 0.0 0.00 0.00 0.00 88 1014.2
20260506221026 81 196 0.0 1.0 0.00 0.00 0.00 88 1013.9
20260506220524 81 188 0.0 0.0 0.00 0.00 0.00 87 1014.2
20260506220025 81 181 1.0 2.0 0.00 0.00 0.00 87 1013.9
20260506215524 81 184 1.0 1.0 0.00 0.00 0.00 87 1013.9
20260506215024 81 179 2.0 2.0 0.00 0.00 0.00 87 1013.9
20260506214524 81 197 2.0 2.0 0.00 0.00 0.00 87 1013.9
20260506214024 81 222 2.0 2.0 0.00 0.00 0.00 87 1013.9
20260506213524 81 205 0.0 0.0 0.00 0.00 0.00 87 1013.9
20260506213025 81 201 1.0 1.0 0.00 0.00 0.00 87 1013.9
20260506212524 81 202 0.0 0.0 0.00 0.00 0.00 87 1013.5
20260506212024 81 184 0.0 1.0 0.00 0.00 0.00 87 1013.5
20260506211524 81 185 0.0 0.0 0.00 0.00 0.00 87 1013.9
20260506211024 81 171 2.0 2.0 0.00 0.00 0.00 87 1013.9
20260506210524 81 188 0.0 1.0 0.00 0.00 0.00 87 1013.9
20260506210025 81 179 0.0 1.0 0.00 0.00 0.00 87 1013.9
20260506205524 82 195 0.0 0.0 0.00 0.00 0.00 87 1013.9
20260506205026 82 206 1.0 1.0 0.00 0.00 0.00 87 1013.9
20260506204525 82 187 1.0 1.0 0.00 0.00 0.00 87 1013.9
20260506204024 82 191 1.0 2.0 0.00 0.00 0.00 87 1013.9
20260506203524 82 166 2.0 2.0 0.00 0.00 0.00 87 1013.5
20260506203024 82 164 1.0 1.0 0.00 0.00 0.00 86 1013.9
20260506202525 82 150 1.0 1.0 0.00 0.00 0.00 86 1013.5
20260506202024 82 152 3.0 3.0 0.00 0.00 0.00 86 1013.9
20260506201524 82 153 3.0 3.0 0.00 0.00 0.00 86 1013.5
20260506201024 82 163 1.0 2.0 0.00 0.00 0.00 86 1013.5
20260506200524 82 170 0.0 1.0 0.00 0.00 0.00 85 1013.5
20260506200024 82 168 0.0 1.0 0.00 0.00 0.00 85 1013.9
20260506195525 82 167 2.0 2.0 0.00 0.00 0.00 85 1013.5
20260506195028 82 156 2.0 2.0 0.00 0.00 0.00 85 1013.9
20260506194525 82 138 3.0 3.0 0.00 0.00 0.00 84 1013.5
20260506194025 83 134 2.0 2.0 0.00 0.00 0.00 85 1013.9
20260506193528 83 145 3.0 3.0 0.00 0.00 0.00 84 1013.5
20260506193026 83 157 1.0 2.0 0.00 0.00 0.00 84 1013.9
20260506192525 83 111 2.0 2.0 0.00 0.00 0.00 84 1013.9
20260506192024 83 125 2.0 2.0 0.00 0.00 0.00 84 1013.9
20260506191526 83 156 1.0 1.0 0.00 0.00 0.00 84 1013.9
20260506191028 83 184 1.0 2.0 0.00 0.00 0.00 84 1013.9
20260506190526 83 125 3.0 3.0 0.00 0.00 0.00 84 1013.9
20260506190024 83 162 1.0 1.0 0.00 0.00 0.00 84 1013.9
20260506185525 83 187 0.0 0.0 0.00 0.00 0.00 84 1013.9
20260506185025 83 176 1.0 1.0 0.00 0.00 0.00 84 1013.9
20260506184524 83 124 2.0 2.0 0.00 0.00 0.00 84 1013.9
20260506184024 84 184 4.0 5.0 0.00 0.00 0.00 84 1014.2
20260506183524 84 193 2.0 3.0 0.00 0.00 0.00 83 1014.2
20260506183024 84 174 2.0 2.0 0.00 0.00 0.00 83 1014.2
20260506182525 84 188 0.0 0.0 0.00 0.00 0.00 82 1013.9
20260506182024 84 143 1.0 1.0 0.00 0.00 0.00 82 1014.2
20260506181524 84 165 1.0 1.0 0.00 0.00 0.00 82 1014.2
20260506181024 84 119 4.0 5.0 0.00 0.00 0.00 82 1014.2
20260506180525 84 122 1.0 1.0 0.00 0.00 0.00 82 1014.2
20260506180025 84 114 2.0 2.0 0.00 0.00 0.00 82 1014.6
20260506175527 84 120 1.0 1.0 0.00 0.00 0.00 82 1014.6
20260506175026 84 139 4.0 5.0 0.00 0.00 0.00 82 1014.6
20260506174525 84 148 2.0 2.0 0.00 0.00 0.00 82 1014.6
20260506174025 84 111 2.0 2.0 0.00 0.00 0.00 82 1014.6
20260506173524 84 144 3.0 3.0 0.00 0.00 0.00 82 1014.6
20260506173025 84 117 4.0 5.0 0.00 0.00 0.00 82 1014.6
20260506172525 84 151 1.0 2.0 0.00 0.00 0.00 83 1014.6
20260506172024 84 157 1.0 1.0 0.00 0.00 0.00 83 1014.6
20260506171525 84 166 1.0 2.0 0.00 0.00 0.00 83 1014.6
20260506171025 84 145 2.0 2.0 0.00 0.00 0.00 83 1014.6
20260506170527 84 139 1.0 2.0 0.00 0.00 0.00 83 1014.6
20260506170024 84 114 3.0 5.0 0.00 0.00 0.00 83 1014.6
20260506165524 84 110 3.0 3.0 0.00 0.00 0.00 83 1014.6
20260506165024 84 138 2.0 2.0 0.00 0.00 0.00 83 1014.6
20260506164525 84 149 1.0 1.0 0.00 0.00 0.00 83 1014.9
20260506164025 84 117 3.0 3.0 0.00 0.00 0.00 83 1014.9
20260506163524 84 147 2.0 2.0 0.00 0.00 0.00 83 1014.6
20260506163025 84 124 2.0 2.0 0.00 0.00 0.00 83 1014.9
20260506162524 84 139 1.0 2.0 0.00 0.00 0.00 83 1014.9
20260506162024 84 150 2.0 2.0 0.00 0.00 0.00 83 1014.9
20260506161525 84 99 3.0 3.0 0.00 0.00 0.00 82 1014.6
20260506161025 84 125 3.0 5.0 0.00 0.00 0.00 82 1014.9
20260506160525 84 136 2.0 2.0 0.00 0.00 0.00 82 1014.9
20260506160025 84 89 4.0 6.0 0.00 0.00 0.00 82 1014.9
20260506155525 84 104 3.0 3.0 0.00 0.00 0.00 82 1014.9
20260506155024 84 159 2.0 2.0 0.00 0.00 0.00 82 1014.9
20260506154525 84 134 1.0 2.0 0.00 0.00 0.00 82 1014.6
20260506154025 84 169 0.0 0.0 0.00 0.00 0.00 82 1014.6
20260506153524 84 138 1.0 1.0 0.00 0.00 0.00 81 1014.6
20260506153026 84 142 1.0 1.0 0.00 0.00 0.00 81 1014.9
20260506152525 84 131 1.0 1.0 0.00 0.00 0.00 81 1014.6
20260506152024 84 132 3.0 3.0 0.00 0.00 0.00 81 1014.9
20260506151524 84 150 1.0 1.0 0.00 0.00 0.00 81 1014.9
20260506151024 84 124 2.0 2.0 0.00 0.00 0.00 81 1014.9
20260506150526 85 130 3.0 3.0 0.00 0.00 0.00 81 1014.9
20260506150026 85 181 1.0 1.0 0.00 0.00 0.00 81 1014.6
20260506145527 85 120 1.0 1.0 0.00 0.00 0.00 81 1014.9
20260506145024 85 132 2.0 2.0 0.00 0.00 0.00 81 1014.9
20260506144525 85 67 4.0 5.0 0.00 0.00 0.00 81 1014.9
20260506144025 85 116 2.0 2.0 0.00 0.00 0.00 81 1014.9
20260506143526 85 122 3.0 5.0 0.00 0.00 0.00 80 1014.9
20260506143024 85 108 2.0 2.0 0.00 0.00 0.00 81 1014.9
20260506142525 85 114 3.0 3.0 0.00 0.00 0.00 81 1014.9
20260506142025 85 76 2.0 3.0 0.00 0.00 0.00 80 1014.6
20260506141525 85 200 1.0 1.0 0.00 0.00 0.00 80 1014.6
20260506141025 85 116 1.0 2.0 0.00 0.00 0.00 80 1014.6
20260506140525 85 141 1.0 2.0 0.00 0.00 0.00 80 1014.6
20260506140025 85 147 1.0 2.0 0.00 0.00 0.00 80 1014.2
20260506135526 85 93 1.0 2.0 0.00 0.00 0.00 81 1014.6
20260506135024 85 167 0.0 0.0 0.00 0.00 0.00 81 1014.6
20260506134524 85 195 0.0 0.0 0.00 0.00 0.00 80 1014.2
20260506134025 85 125 3.0 3.0 0.00 0.00 0.00 80 1014.6
20260506133525 85 75 2.0 2.0 0.00 0.00 0.00 80 1014.6
20260506133025 85 195 0.0 1.0 0.00 0.00 0.00 80 1014.6
20260506132525 85 106 2.0 2.0 0.00 0.00 0.00 80 1014.2
20260506132024 85 110 3.0 3.0 0.00 0.00 0.00 80 1014.2
20260506131524 85 126 4.0 5.0 0.00 0.00 0.00 80 1014.6
20260506131025 85 125 1.0 1.0 0.00 0.00 0.00 79 1014.2
20260506130525 85 82 3.0 3.0 0.00 0.00 0.00 79 1014.2
20260506130024 85 108 2.0 2.0 0.00 0.00 0.00 79 1014.2
20260506125527 85 109 2.0 2.0 0.00 0.00 0.00 79 1014.2
20260506125025 85 108 3.0 3.0 0.00 0.00 0.00 79 1013.9
20260506124524 85 137 3.0 3.0 0.00 0.00 0.00 79 1013.9
20260506124026 85 110 1.0 2.0 0.00 0.00 0.00 78 1014.2
20260506123524 85 64 2.0 3.0 0.00 0.00 0.00 78 1013.9
20260506123024 85 171 1.0 1.0 0.00 0.00 0.00 78 1013.9
20260506122524 86 122 4.0 5.0 0.00 0.00 0.00 77 1013.5
20260506122024 86 155 1.0 1.0 0.00 0.00 0.00 77 1013.9
20260506121525 86 91 1.0 2.0 0.00 0.00 0.00 76 1013.9
20260506121026 86 130 4.0 5.0 0.00 0.00 0.00 76 1013.5
20260506120524 86 145 1.0 1.0 0.00 0.00 0.00 75 1013.5
20260506120025 86 71 1.0 1.0 0.00 0.00 0.00 75 1013.2
20260506115524 86 53 1.0 2.0 0.00 0.00 0.00 75 1013.2
20260506115025 86 164 1.0 2.0 0.00 0.00 0.00 75 1013.2
20260506114524 86 110 1.0 2.0 0.00 0.00 0.00 74 1013.2
20260506114024 86 4 2.0 2.0 0.00 0.00 0.00 75 1013.2
20260506113530 86 20 2.0 5.0 0.00 0.00 0.00 75 1013.2
20260506113025 86 36 1.0 2.0 0.00 0.00 0.00 75 1012.9
20260506112526 86 200 1.0 1.0 0.00 0.00 0.00 76 1012.9
20260506112024 86 4 3.0 3.0 0.00 0.00 0.00 76 1012.9
20260506111524 86 274 3.0 3.0 0.00 0.00 0.00 76 1012.9
20260506111024 86 9 3.0 3.0 0.00 0.00 0.00 76 1012.5
20260506110527 86 39 3.0 5.0 0.00 0.00 0.00 76 1012.5
20260506110024 86 2 1.0 2.0 0.00 0.00 0.00 76 1012.5
20260506105524 86 4 4.0 5.0 0.00 0.00 0.00 76 1012.2
20260506105026 86 37 6.0 7.0 0.00 0.00 0.00 75 1012.2
20260506104526 87 349 6.0 7.0 0.00 0.00 0.00 75 1012.2
20260506104024 87 9 3.0 3.0 0.00 0.00 0.00 75 1012.2
20260506103524 87 15 2.0 2.0 0.00 0.00 0.00 75 1012.2
20260506103025 87 30 5.0 8.0 0.00 0.00 0.00 75 1012.2
20260506102525 87 55 1.0 2.0 0.00 0.00 0.00 75 1011.9
20260506102024 87 158 0.0 0.0 0.00 0.00 0.00 75 1011.9
20260506101525 87 39 5.0 7.0 0.00 0.00 0.00 75 1012.2
20260506101031 87 26 6.0 7.0 0.00 0.00 0.00 74 1012.2
20260506100528 88 14 1.0 3.0 0.00 0.00 0.00 74 1011.9
20260506100026 88 349 4.0 6.0 0.00 0.00 0.00 73 1011.9
20260506095525 88 35 5.0 7.0 0.00 0.00 0.00 73 1011.9
20260506095024 88 352 6.0 8.0 0.00 0.00 0.00 73 1011.9
20260506094525 88 128 2.0 2.0 0.00 0.00 0.00 72 1011.9
20260506094024 89 8 2.0 3.0 0.00 0.00 0.00 71 1011.5
20260506093524 89 24 3.0 5.0 0.00 0.00 0.00 71 1011.9
20260506093025 89 35 7.0 9.0 0.00 0.00 0.00 71 1011.9
20260506092525 89 2 5.0 7.0 0.00 0.00 0.00 70 1011.5
20260506092025 89 18 7.0 10.0 0.00 0.00 0.00 70 1011.5
20260506091524 89 4 6.0 7.0 0.00 0.00 0.00 70 1011.5
20260506091028 89 114 5.0 7.0 0.00 0.00 0.00 69 1011.5
20260506090524 89 278 0.0 1.0 0.00 0.00 0.00 70 1011.5
20260506090024 89 332 3.0 6.0 0.00 0.00 0.00 69 1011.2
20260506085524 90 299 3.0 6.0 0.00 0.00 0.00 69 1011.5
20260506085024 90 309 7.0 9.0 0.00 0.00 0.00 67 1011.5
20260506084526 90 30 5.0 6.0 0.00 0.00 0.00 68 1011.5
20260506084024 90 355 5.0 9.0 0.00 0.00 0.00 68 1011.2
20260506083530 90 346 6.0 9.0 0.00 0.00 0.00 68 1011.5
20260506083024 90 15 5.0 7.0 0.00 0.00 0.00 68 1011.5
20260506082525 90 17 4.0 5.0 0.00 0.00 0.00 68 1011.5
20260506082025 89 7 3.0 3.0 0.00 0.00 0.00 69 1011.2
20260506081525 90 343 3.0 5.0 0.00 0.00 0.00 69 1011.2
20260506081024 90 348 3.0 3.0 0.00 0.00 0.00 70 1011.2
20260506080524 90 165 2.0 2.0 0.00 0.00 0.00 69 1011.2
20260506073524 90 322 2.0 3.0 0.00 0.00 0.00 69 1011.2
20260506073024 91 16 4.0 6.0 0.00 0.00 0.00 69 1011.5
20260506072524 91 31 2.0 3.0 0.00 0.00 0.00 68 1011.2
20260506072026 91 288 3.0 3.0 0.00 0.00 0.00 69 1011.5
20260506071524 90 334 3.0 3.0 0.00 0.00 0.00 69 1011.5
20260506071025 89 0 2.0 2.0 0.00 0.00 0.00 70 1011.5
20260506070524 89 109 8.0 10.0 0.00 0.00 0.00 69 1011.5
20260506062024 90 9 7.0 7.0 0.00 0.00 0.00 67 1012.2
20260506061525 89 32 3.0 3.0 0.00 0.00 0.00 68 1012.5
20260506061025 90 27 4.0 5.0 0.00 0.00 0.00 67 1012.2
20260506060526 91 5 3.0 6.0 0.00 0.00 0.00 62 1012.2
20260506051024 90 196 1.0 2.0 0.00 0.00 0.00 64 1013.5
20260506050525 91 100 4.0 6.0 0.00 0.00 0.00 63 1013.5
20260506045025 91 162 3.0 3.0 0.00 0.00 0.00 63 1013.9
20260506044524 90 2 2.0 2.0 0.00 0.00 0.00 63 1013.5
20260506044024 89 336 3.0 3.0 0.00 0.00 0.00 64 1013.9
20260506043524 89 166 4.0 6.0 0.00 0.00 0.00 65 1013.9
20260506043025 89 127 5.0 6.0 0.00 0.00 0.00 65 1013.9
20260506042524 89 124 4.0 5.0 0.00 0.00 0.00 65 1013.9
20260506042024 89 130 3.0 5.0 0.00 0.00 0.00 65 1013.9
20260506041524 89 153 5.0 7.0 0.00 0.00 0.00 64 1013.9
20260506041025 89 136 4.0 5.0 0.00 0.00 0.00 65 1013.9
20260506040525 89 75 5.0 6.0 0.00 0.00 0.00 65 1013.9
20260506040025 89 165 2.0 2.0 0.00 0.00 0.00 65 1014.2
20260506035524 89 348 3.0 3.0 0.00 0.00 0.00 65 1014.6
20260506035026 88 190 1.0 1.0 0.00 0.00 0.00 67 1014.2
20260506034524 88 117 4.0 6.0 0.00 0.00 0.00 67 1014.2
20260506034025 89 106 6.0 7.0 0.00 0.00 0.00 67 1014.6
20260506033525 89 137 5.0 6.0 0.00 0.00 0.00 66 1014.6
20260506033026 89 216 2.0 3.0 0.00 0.00 0.00 66 1014.9
20260506032525 89 166 3.0 5.0 0.00 0.00 0.00 67 1014.9
20260506032026 88 159 1.0 2.0 0.00 0.00 0.00 67 1014.9
20260506031524 89 118 6.0 7.0 0.00 0.00 0.00 66 1014.9
20260506031025 88 118 4.0 5.0 0.00 0.00 0.00 65 1014.9
20260506030524 88 116 4.0 5.0 0.00 0.00 0.00 66 1014.9
20260506030026 89 143 7.0 7.0 0.00 0.00 0.00 65 1014.9
20260506025524 88 149 1.0 2.0 0.00 0.00 0.00 68 1014.9
20260506025024 88 136 7.0 9.0 0.00 0.00 0.00 67 1014.9
20260506024525 89 125 7.0 9.0 0.00 0.00 0.00 66 1014.9
20260506024024 89 136 6.0 7.0 0.00 0.00 0.00 65 1014.9
20260506023524 88 135 2.0 2.0 0.00 0.00 0.00 68 1015.2
20260506023024 88 80 5.0 7.0 0.00 0.00 0.00 68 1014.9
20260506022524 87 110 5.0 6.0 0.00 0.00 0.00 69 1014.9
20260506022024 88 76 4.0 6.0 0.00 0.00 0.00 69 1014.9
20260506021525 88 77 8.0 9.0 0.00 0.00 0.00 67 1015.2
20260506021024 87 83 5.0 7.0 0.00 0.00 0.00 71 1015.2
20260506020525 87 153 5.0 6.0 0.00 0.00 0.00 71 1015.2
20260506020024 87 120 5.0 6.0 0.00 0.00 0.00 72 1015.2
20260506015524 87 102 6.0 7.0 0.00 0.00 0.00 71 1015.2
20260506015025 86 131 4.0 6.0 0.00 0.00 0.00 72 1015.2
20260506014524 86 108 3.0 5.0 0.00 0.00 0.00 73 1015.2
20260506014024 86 220 2.0 3.0 0.00 0.00 0.00 75 1015.2
20260506013524 85 136 3.0 3.0 0.00 0.00 0.00 77 1015.2
20260506013025 85 200 2.0 3.0 0.00 0.00 0.00 77 1015.2
20260506012524 85 152 4.0 6.0 0.00 0.00 0.00 78 1015.2
20260506012024 85 124 6.0 7.0 0.00 0.00 0.00 78 1015.2
20260506011525 84 161 4.0 5.0 0.00 0.00 0.00 79 1015.6
20260506011030 84 173 3.0 3.0 0.00 0.00 0.00 79 1015.2
20260506010524 84 131 1.0 2.0 0.00 0.00 0.00 80 1015.6
20260506010024 83 123 4.0 5.0 0.00 0.00 0.00 82 1015.2
20260506005524 83 162 4.0 6.0 0.00 0.00 0.00 82 1015.2
20260506005025 83 123 4.0 5.0 0.00 0.00 0.00 81 1015.2
20260506004525 82 117 2.0 2.0 0.00 0.00 0.00 83 1015.2
20260506004024 82 131 2.0 2.0 0.00 0.00 0.00 84 1015.2
20260506003524 82 187 2.0 2.0 0.00 0.00 0.00 84 1015.2
20260506003025 82 179 1.0 1.0 0.00 0.00 0.00 84 1015.2
20260506002526 82 258 1.0 1.0 0.00 0.00 0.00 84 1015.2
20260506002025 82 195 2.0 2.0 0.00 0.00 0.00 84 1015.2
20260506001524 82 178 0.0 0.0 0.00 0.00 0.00 84 1015.2
20260506001024 82 143 1.0 1.0 0.00 0.00 0.00 86 1015.2
20260506000526 81 221 2.0 2.0 0.00 0.00 0.00 87 1015.2
20260506000024 81 218 1.0 1.0 0.00 0.00 0.00 87 1015.2
20260505235524 81 189 2.0 2.0 0.00 0.00 0.00 88 1015.2
20260505235024 81 205 2.0 2.0 0.00 0.00 0.00 88 1014.9
20260505234524 80 203 2.0 2.0 0.00 0.00 0.00 89 1014.9
20260505234024 80 190 3.0 3.0 0.00 0.00 0.00 89 1015.2
20260505233525 80 181 3.0 3.0 0.00 0.00 0.00 89 1014.9
20260505233025 80 228 3.0 3.0 0.00 0.00 0.00 89 1014.9
20260505232524 80 200 2.0 2.0 0.00 0.00 0.00 89 1014.9
20260505232025 80 207 1.0 1.0 0.00 0.00 0.00 89 1014.9
20260505231526 80 189 2.0 2.0 0.00 0.00 0.00 89 1014.9
20260505231025 80 200 0.0 0.0 0.00 0.00 0.00 89 1014.9
20260505230524 80 200 1.0 2.0 0.00 0.00 0.00 89 1014.6